FW0923 Weather Reports


time (UTC)temp
F
wind
direction
speed
knots
gust
knots
rain 1hr
in
rain 24hr
in
rain mn
in
humidity
%
barometer
mb
20190523144322 83 179 0.9 5.2 0.00 0.00 0.00 64 1019.9
20190523143324 83 108 0.0 2.6 0.00 0.00 0.00 67 1019.9
20190523142323 83 104 1.7 7.0 0.00 0.00 0.00 67 1019.9
20190523141321 82 129 0.0 5.2 0.00 0.00 0.00 69 1019.7
20190523140324 82 124 0.9 5.2 0.00 0.00 0.00 67 1019.7
20190523135321 82 118 1.7 5.2 0.00 0.00 0.00 68 1019.8
20190523134320 81 86 1.7 3.5 0.00 0.00 0.00 70 1019.8
20190523133322 80 125 1.7 6.1 0.00 0.00 0.00 72 1019.8
20190523132322 79 105 0.9 5.2 0.00 0.00 0.00 75 1019.8
20190523131320 78 109 0.9 4.3 0.00 0.00 0.00 76 1019.8
20190523130322 78 107 0.9 5.2 0.00 0.00 0.00 78 1019.8
20190523125319 77 141 0.9 2.6 0.00 0.00 0.00 79 1019.8
20190523124318 76 112 0.9 5.2 0.00 0.00 0.00 80 1019.7
20190523123316 76 111 0.0 2.6 0.00 0.00 0.00 82 1019.7
20190523122320 75 119 0.9 3.5 0.00 0.00 0.00 82 1019.7
20190523121319 74 111 0.9 3.5 0.00 0.00 0.00 83 1019.5
20190523120318 74 127 0.0 2.6 0.00 0.00 0.00 85 1019.5
20190523115318 73 120 0.0 2.6 0.00 0.00 0.00 85 1019.3
20190523114313 72 115 0.0 2.6 0.00 0.00 0.00 87 1019.3
20190523113312 72 103 0.0 3.5 0.00 0.00 0.00 88 1019.3
20190523112314 71 111 0.0 2.6 0.00 0.00 0.00 89 1019.1
20190523111312 71 115 0.0 0.9 0.00 0.00 0.00 89 1019.0
20190523110312 71 119 0.0 0.0 0.00 0.00 0.00 89 1018.8
20190523105313 71 118 0.0 0.0 0.00 0.00 0.00 89 1018.7
20190523104312 71 118 0.0 0.9 0.00 0.00 0.00 89 1018.6
20190523103331 71 133 0.0 0.0 0.00 0.00 0.00 89 1018.5
20190523102330 71 134 0.0 0.0 0.00 0.00 0.00 89 1018.5
20190523101313 71 130 0.0 0.0 0.00 0.00 0.00 88 1018.5
20190523100313 71 130 0.0 0.0 0.00 0.00 0.00 88 1018.5
20190523095328 71 130 0.0 0.0 0.00 0.00 0.00 88 1018.5
20190523094331 71 130 0.0 0.0 0.00 0.00 0.00 88 1018.5
20190523093330 71 113 0.0 0.0 0.00 0.00 0.00 88 1018.4
20190523092330 71 113 0.0 0.0 0.00 0.00 0.00 87 1018.4
20190523091313 71 113 0.0 0.0 0.00 0.00 0.00 87 1018.4
20190523090312 71 113 0.0 0.0 0.00 0.00 0.00 87 1018.3
20190523085329 71 113 0.0 0.0 0.00 0.00 0.00 87 1018.3
20190523084313 71 113 0.0 0.0 0.00 0.00 0.00 86 1018.3
20190523083312 71 113 0.0 0.0 0.00 0.00 0.00 86 1018.3
20190523082330 71 113 0.0 1.7 0.00 0.00 0.00 86 1018.3
20190523081329 71 113 0.0 0.0 0.00 0.00 0.00 85 1018.2
20190523080312 71 113 0.0 0.0 0.00 0.00 0.00 85 1018.2
20190523075330 71 113 0.0 0.0 0.00 0.00 0.00 85 1018.2
20190523074329 72 113 0.0 0.0 0.00 0.00 0.00 84 1018.3
20190523073312 72 113 0.0 0.0 0.00 0.00 0.00 84 1018.4
20190523072312 72 113 0.0 0.0 0.00 0.00 0.00 83 1018.4
20190523071331 72 113 0.0 0.0 0.00 0.00 0.00 83 1018.3
20190523070313 72 113 0.0 0.0 0.00 0.00 0.00 82 1018.4
20190523065331 72 113 0.0 0.0 0.00 0.00 0.00 82 1018.5
20190523064330 73 113 0.0 0.0 0.00 0.00 0.00 81 1018.5
20190523063313 73 113 0.0 0.0 0.00 0.00 0.00 80 1018.7
20190523062312 73 113 0.0 1.7 0.00 0.00 0.00 80 1018.7
20190523061331 73 113 0.0 0.0 0.00 0.00 0.00 79 1018.9
20190523060331 73 113 0.0 2.6 0.00 0.00 0.00 79 1019.0
20190523055331 74 117 0.0 1.7 0.00 0.00 0.00 78 1019.0
20190523054329 74 117 0.0 2.6 0.00 0.00 0.00 78 1019.0
20190523053328 74 117 0.0 1.7 0.00 0.00 0.00 77 1019.1
20190523052331 74 115 0.0 1.7 0.00 0.00 0.00 76 1019.3
20190523051330 75 117 0.0 2.6 0.00 0.00 0.00 76 1019.3
20190523050329 75 120 0.0 2.6 0.00 0.00 0.00 75 1019.3
20190523045331 75 110 0.0 1.7 0.00 0.00 0.00 74 1019.4
20190523044330 75 106 1.7 3.5 0.00 0.00 0.00 74 1019.4
20190523043328 76 117 0.9 5.2 0.00 0.00 0.00 73 1019.3
20190523042328 76 103 0.0 5.2 0.00 0.00 0.00 72 1019.5
20190523041331 76 110 1.7 3.5 0.00 0.00 0.00 71 1019.5
20190523040331 76 113 0.9 6.1 0.00 0.00 0.00 70 1019.5
20190523035328 77 115 0.9 5.2 0.00 0.00 0.00 69 1019.5
20190523034331 77 113 1.7 5.2 0.00 0.00 0.00 69 1019.5
20190523033331 77 101 0.9 6.1 0.00 0.00 0.00 68 1019.5
20190523032331 77 103 0.9 3.5 0.00 0.00 0.00 67 1019.5
20190523031314 78 113 1.7 5.2 0.00 0.00 0.00 66 1019.3
20190523030314 78 88 0.9 6.1 0.00 0.00 0.00 65 1019.2
20190523025331 79 93 2.6 9.6 0.00 0.00 0.00 64 1019.2
20190523024314 79 104 1.7 5.2 0.00 0.00 0.00 64 1019.1
20190523023313 80 91 1.7 6.1 0.00 0.00 0.00 63 1019.0
20190523022330 80 109 2.6 7.8 0.00 0.00 0.00 63 1018.8
20190523021315 80 112 1.7 6.1 0.00 0.00 0.00 62 1018.6
20190523020314 81 77 1.7 5.2 0.00 0.00 0.00 61 1018.4
20190523015332 81 132 0.9 7.0 0.00 0.00 0.00 60 1018.2
20190523014332 82 96 0.9 5.2 0.00 0.00 0.00 59 1018.0
20190523013316 82 99 0.9 7.0 0.00 0.00 0.00 57 1017.7
20190523012317 83 98 0.0 2.6 0.00 0.00 0.00 56 1017.5
20190523011316 83 96 0.0 3.5 0.00 0.00 0.00 55 1017.3
20190523010319 84 107 0.0 5.2 0.00 0.00 0.00 54 1017.2
20190523005317 85 88 0.9 5.2 0.00 0.00 0.00 53 1017.0
20190523004316 85 101 1.7 7.8 0.00 0.00 0.00 53 1016.8
20190523003319 86 102 1.7 7.8 0.00 0.00 0.00 52 1016.6
20190523002320 86 105 0.9 6.1 0.00 0.00 0.00 51 1016.4
20190523001319 87 91 0.9 7.8 0.00 0.00 0.00 50 1016.2
20190523000318 88 89 0.0 3.5 0.00 0.00 0.00 50 1016.1
20190522235314 89 148 0.9 3.5 0.00 0.00 0.00 49 1016.0
20190522234315 89 117 1.7 5.2 0.00 0.00 0.00 47 1015.9
20190522233316 89 106 0.0 2.6 0.00 0.00 0.00 45 1015.7
20190522232320 90 96 0.0 2.6 0.00 0.00 0.00 46 1015.6
20190522231318 90 95 0.9 5.2 0.00 0.00 0.00 43 1015.6
20190522230318 90 110 0.0 2.6 0.00 0.00 0.00 43 1015.5
20190522225319 90 117 0.0 5.2 0.00 0.00 0.00 41 1015.5
20190522224317 90 128 0.0 2.6 0.00 0.00 0.00 40 1015.5
20190522223316 91 107 0.9 5.2 0.00 0.00 0.00 39 1015.5
20190522222320 91 95 0.0 3.5 0.00 0.00 0.00 40 1015.4
20190522221318 91 96 0.9 5.2 0.00 0.00 0.00 42 1015.4
20190522220317 91 87 0.0 2.6 0.00 0.00 0.00 41 1015.4
20190522215318 92 126 0.9 6.1 0.00 0.00 0.00 42 1015.4
20190522214318 92 99 0.0 7.0 0.00 0.00 0.00 44 1015.4
20190522213316 92 121 0.9 3.5 0.00 0.00 0.00 42 1015.4
20190522212316 92 92 0.0 5.2 0.00 0.00 0.00 42 1015.5
20190522211318 92 111 0.9 3.5 0.00 0.00 0.00 42 1015.5
20190522210316 92 126 0.0 2.6 0.00 0.00 0.00 42 1015.5
20190522205314 92 84 0.0 3.5 0.00 0.00 0.00 43 1015.5
20190522204316 92 123 0.0 1.7 0.00 0.00 0.00 45 1015.4
20190522203314 92 107 0.0 6.1 0.00 0.00 0.00 45 1015.5
20190522202313 93 101 0.0 1.7 0.00 0.00 0.00 43 1015.5
20190522201315 92 111 0.0 1.7 0.00 0.00 0.00 46 1015.6
20190522200315 93 120 0.9 3.5 0.00 0.00 0.00 44 1015.5
20190522195330 92 119 0.0 6.1 0.00 0.00 0.00 47 1015.6
20190522194314 93 103 0.9 2.6 0.00 0.00 0.00 47 1015.8
20190522193312 93 89 0.0 6.1 0.00 0.00 0.00 46 1015.9
20190522192332 93 91 0.0 0.9 0.00 0.00 0.00 47 1015.9
20190522191331 94 93 0.0 2.6 0.00 0.00 0.00 45 1016.0
20190522190314 93 115 0.0 3.5 0.00 0.00 0.00 45 1016.1
20190522185331 93 121 0.0 3.5 0.00 0.00 0.00 45 1016.1
20190522184331 92 109 0.0 2.6 0.00 0.00 0.00 48 1016.1
20190522183331 92 5 0.0 0.9 0.00 0.00 0.00 49 1016.2
20190522182330 92 65 0.0 1.7 0.00 0.00 0.00 50 1016.4
20190522181328 92 115 0.0 2.6 0.00 0.00 0.00 50 1016.4
20190522180331 92 94 0.0 5.2 0.00 0.00 0.00 50 1016.4
20190522175329 91 130 0.0 0.9 0.00 0.00 0.00 50 1016.5
20190522174327 91 83 0.0 0.9 0.00 0.00 0.00 50 1016.5
20190522173325 91 112 0.0 2.6 0.00 0.00 0.00 52 1016.6
20190522172328 92 74 0.0 0.0 0.00 0.00 0.00 52 1016.7
20190522171327 90 74 0.0 0.0 0.00 0.00 0.00 55 1016.7
20190522170325 90 74 0.0 3.5 0.00 0.00 0.00 55 1016.7
20190522165326 91 127 0.0 5.2 0.00 0.00 0.00 52 1016.8
20190522164324 91 102 0.0 6.1 0.00 0.00 0.00 54 1016.8
20190522163322 91 97 0.9 4.3 0.00 0.00 0.00 55 1016.8
20190522162324 91 119 0.0 1.7 0.00 0.00 0.00 55 1016.9
20190522161324 90 109 0.0 2.6 0.00 0.00 0.00 58 1016.9
20190522160321 90 120 0.0 3.5 0.00 0.00 0.00 57 1016.9
20190522155321 90 130 0.0 2.6 0.00 0.00 0.00 58 1017.0
20190522154320 89 178 0.0 0.9 0.00 0.00 0.00 60 1017.0
20190522153318 88 159 0.0 0.9 0.00 0.00 0.00 62 1017.0
20190522152317 87 115 0.0 1.7 0.00 0.00 0.00 64 1016.9
20190522151322 86 115 0.0 0.0 0.00 0.00 0.00 66 1016.9
20190522150319 86 115 0.0 1.7 0.00 0.00 0.00 67 1016.9
20190522145317 85 109 0.0 3.5 0.00 0.00 0.00 69 1016.8